カタログに戻る

CZ-4 DEB

運用中PO
NORAD 26273·DEBRIS·🇨🇳 China

打ち上げ Oct 14, 1999 から Taiyuan Satellite Launch Center

Loading…

次のパス (今後24時間)

TLE

最新Source: Space-Track

元期: Sep 14, 2026, 09:24 UTC

1 26273U 99057FK  26257.39203344  .00000789  00000-0  10374-3 0  9992
2 26273  98.7244  56.4786 0057778   5.7462  24.4316 14.82444596422612

AllMySatでCZ-4 DEBをリアルタイム追跡

Download on the App Store